Regional Weather Roundup
Issued by NWS Kansas City/Pleasant Hill, MO

Home | Current Version | Previous Version | Graphics & Text | Print | Product List | Glossary Off
Versions: 1 2 3 4 5 6 7 8 9 10 11 12 13 14 15 16 17 18 19 20 21 22 23 24 25 26 27 28 29 30 31 32 33 34 35 36 37 38 39 40 41 42 43 44 45 46 47 48 49 50

000
ASUS43 KEAX 010410
RWREAX

WEATHER ROUNDUP FOR EASTERN KANSAS AND NORTHWEST MISSOURI
NATIONAL WEATHER SERVICE KANSAS CITY/PLEASANT HILL MO
1100 PM CDT MON AUG 31 2015

KSZ040-057-103>105-MOZ028-029-037-043-010500-
...KANSAS CITY METROPOLITAN AREA...

CITY           SKY/WX    TMP DP  RH WIND       PRES   REMARKS
K.C. INTL      CLEAR     75  69  81 S9        29.98R
K.C. DOWNTOWN  CLEAR     81  69  67 S9        29.97S
LEES SUMMIT    CLEAR     79  66  64 S9        30.00R
OLATHE - IXD   CLEAR     75  69  81 S8        30.00S
OLATHE - OJC   CLEAR     75  69  81 S7        29.99S
LAWRENCE       CLEAR     74  69  85 SE7       29.97S

$$

MOZ001>008-011>017-020>025-030>033-038>040-044>046-053-054-010500-
...NORTHERN AND CENTRAL MISSOURI...

CITY           SKY/WX    TMP DP  RH WIND       PRES   REMARKS
ST. JOSEPH     CLEAR     75  70  84 S7        29.96R
MOSBY          CLEAR     73  68  83 CALM      29.98S
WARRENSBURG    CLEAR     73  68  83 S3        30.00S
WHITEMAN AFB   CLEAR     74  69  85 S7        30.00R
CLINTON        CLEAR     79  72  78 S7        30.02S
SEDALIA        CLEAR     76  69  79 S9        30.03R
WARSAW         NOT AVBL
CHILLICOTHE      N/A     77  70  79 CALM      29.99R
KIRKSVILLE     MOCLDY    73  67  81 S6        30.01S

$$

MOZ041-047>049-056>058-063>065-088>090-097-010500-
...EASTERN AND SOUTHERN MISSOURI...

CITY           SKY/WX    TMP DP  RH WIND       PRES   REMARKS
ST. LOUIS INTL PTCLDY    81  72  74 S7        30.05S
SPIRIT OF STL  CLEAR     79  72  79 S6        30.03R
COLUMBIA       CLEAR     76  71  85 S7        30.03R
JEFFERSON CITY CLEAR     79  70  74 E5        30.01S
ROLLA          CLEAR     76  69  79 S12       30.05S
OSAGE BEACH    CLEAR     77  70  78 S3        30.05S
SPRINGFIELD    CLEAR     74  67  78 S8        30.06R
BRANSON        CLEAR     73  68  83 CALM      30.09R
JOPLIN         CLEAR     76  70  82 S8        30.03S
WEST PLAINS    CLEAR     73  68  84 CALM      30.10F

$$

IAZ060-094-KSZ022-034>040-054-083-096-NEZ052-066-093-010500-
...KANSAS...SOUTHEAST NEBRASKA AND IOWA...

CITY           SKY/WX    TMP DP  RH WIND       PRES   REMARKS
TOPEKA         CLEAR     78  69  73 S10       29.96S
MANHATTAN      CLEAR     79  68  69 S9        29.93S
EMPORIA        CLEAR     76  68  76 S14       29.98S
CHANUTE        CLEAR     77  70  79 SE7       30.00S
WICHITA        CLEAR     77  65  66 S12       29.96S
OMAHA          CLEAR     75  69  81 S9        29.92S
LINCOLN        CLEAR     77  68  73 S8        29.93S
FALLS CITY     CLEAR     75  70  84 SE7       29.93S
LAMONI         CLEAR     75  69  81 S6        29.98S
DES MOINES     PTCLDY    75  70  84 S6        29.95S

$$




USA.gov is the U.S. government's official web portal to all federal, state and local government web resources and services.